Regional Weather Roundup
Issued by NWS

Home | Current Version | Previous Version | Text Only | Print | Product List | Glossary On
Versions: 1 2 3 4 5 6 7 8 9 10 11 12 13 14 15 16 17 18 19 20 21 22 23 24 25 26 27 28 29 30 31 32 33 34 35 36 37 38 39 40 41 42 43 44 45 46 47 48 49 50
000
ASUS46 KPQR 031010
RWROR

OREGON REGIONAL WEATHER ROUNDUP
NATIONAL WEATHER SERVICE PORTLAND OR
300 AM PDT THU SEP 03 2015

NOTE: "FAIR" INDICATES FEW OR NO CLOUDS BELOW 12,000 FEET WITH
NO SIGNIFICANT WEATHER AND/OR OBSTRUCTIONS TO VISIBILITY.

ORZ001>013-031100-
NORTHWEST OREGON


CITY           SKY/WX    TMP DP  RH WIND       PRES   REMARKS
ASTORIA        FAIR      48  46  93 SE5       29.99R
NEWPORT        FAIR      50  48  93 CALM      30.04S
PORTLAND       FAIR      55  49  80 CALM      30.00R
VANCOUVER WA   FAIR      53  47  79 CALM      30.00R
SCAPPOOSE      FAIR      48  45  89 W3        29.99S
HILLSBORO      FAIR      46  44  93 CALM      30.00R
AURORA         CLOUDY    53  49  86 CALM      30.01R
MCMINNVILLE    FAIR      50  47  89 W3        30.01S
SALEM          CLOUDY    55  49  80 CALM      30.00R
CORVALLIS      FAIR      50  46  87 CALM      30.02S
EUGENE         CLOUDY    51  47  86 S5        30.02S
$$

ORZ021-028-031100-
SOUTHWEST OREGON


CITY           SKY/WX    TMP DP  RH WIND       PRES   REMARKS
NORTH BEND     FAIR      54  54 100 SE8       30.03S
BROOKINGS      FAIR      53  53 100 CALM      29.98S
ROSEBURG       CLOUDY    52  47  83 CALM      30.02S
SEXTON SUMMIT  MOCLDY    41  41 100 N8        30.00S FOG
MEDFORD        MOCLDY    57  44  62 NW7       29.99R
$$

ORZ014>016-041-031100-
COLUMBIA GORGE


CITY           SKY/WX    TMP DP  RH WIND       PRES   REMARKS
TROUTDALE      FAIR      54  51  90 E3        30.00R
THE DALLES     FAIR      54  46  74 CALM      29.95S
$$

ORZ029>031-041-044-049-050-061>064-502-503-505>511-031100-
EASTERN OREGON


CITY           SKY/WX    TMP DP  RH WIND       PRES   REMARKS
REDMOND        CLOUDY    43  37  79 S3        29.98S
BEND           CLOUDY    41  36  81 CALM      29.99S
PRINEVILLE     CLOUDY    45  37  76 CALM      29.98S
KLAMATH FALLS  CLOUDY    52  38  58 NW16      29.96S
LAKEVIEW       CLOUDY    48  39  71 N18         N/A
HERMISTON      FAIR      57  44  62 W10       29.92R
PENDLETON      CLOUDY    57  40  52 W7        29.93S
JOHN DAY       CLOUDY    51  44  77 NW9       29.96S
MEACHAM        CLOUDY    45  41  86 CALM      29.97R
LA GRANDE      CLOUDY    52  36  54 NW13      29.94S
BAKER CITY     CLOUDY    47  44  90 NW9       29.94S
BURNS          CLOUDY    50  43  77 W8        29.94F
ROME             N/A     54  38  54 E8        29.91R
ONTARIO        FAIR      62  42  47 NW22      29.85R
$$




USA.gov is the U.S. government's official web portal to all federal, state and local government web resources and services.